Theta_e
318 319 323 324 315 311 314 316 313 315 314 314 314 313 311 312 316 316 314 317 318 318 317 319 320 321 323 330 332 332 333 331 331 329 328 327 327 328 329 329 328 328 329 330 328 326 325 323 323
318 321 324 321 312 313 313 312 315 314 313 313 314 312 311 311 312 312 313 313 315 315 315 314 316 316 317 325 327 331 333 333 331 331 330 329 327 325 325 327 327 327 328 329 329 328 327 324 321
319 322 323 309 309 314 313 313 313 312 313 313 312 311 310 310 311 310 310 309 310 312 313 314 314 314 314 315 323 327 330 329 330 331 330 328 328 329 328 326 328 328 326 328 328 330 329 327 324
319 321 315 310 315 313 313 313 312 311 313 313 312 307 309 310 310 309 307 306 307 308 308 310 311 312 312 313 315 317 320 323 326 326 328 329 329 329 328 328 329 328 327 325 325 326 327 327 326
319 318 311 311 314 313 311 312 313 312 311 311 311 307 307 309 309 308 306 305 305 306 306 307 307 308 309 309 309 309 310 311 313 317 320 324 327 328 329 329 328 328 327 327 326 324 324 324 325
318 314 312 313 313 313 312 313 312 311 311 311 310 307 307 307 307 307 306 305 305 306 306 307 307 307 307 307 307 306 305 306 307 307 309 311 314 319 323 326 328 327 327 328 327 326 324 322 322
314 310 311 311 312 314 313 313 311 310 310 310 310 304 306 305 306 306 305 305 305 305 306 306 305 304 304 304 304 303 302 302 302 302 304 306 307 309 314 318 321 324 325 325 326 327 326 323 323
317 310 312 310 311 314 312 312 311 311 310 310 310 305 304 306 306 305 305 305 305 305 305 304 303 302 302 302 302 301 301 301 301 301 301 301 302 304 306 308 317 320 322 323 324 324 327 326 324
318 312 313 311 311 314 312 311 310 310 310 309 310 308 309 307 305 305 304 304 304 303 302 302 302 302 302 301 301 301 300 300 300 300 300 299 299 299 300 302 304 308 318 322 323 324 325 325 325
312 311 314 311 310 313 313 312 311 309 307 306 306 307 307 306 305 304 303 303 303 302 301 301 301 301 301 301 300 300 299 299 300 300 299 299 299 298 298 299 299 300 304 307 317 323 324 325 324
312 310 314 314 314 314 313 311 311 308 305 309 310 309 306 304 304 303 303 302 302 301 301 301 301 301 300 300 299 299 299 298 298 299 299 299 299 298 298 298 298 299 299 300 304 308 320 323 323
314 313 313 314 315 314 312 311 309 309 312 312 311 310 307 305 304 303 302 302 301 300 299 299 299 299 299 298 298 297 297 297 297 297 297 297 298 298 297 297 298 298 298 298 298 300 303 317 320
313 313 315 314 314 314 312 311 309 309 312 311 311 308 307 305 303 302 301 300 299 299 298 297 297 296 296 295 295 295 296 296 296 296 296 296 296 296 296 296 296 297 297 297 298 298 298 299 307
312 313 312 313 313 313 311 310 308 310 310 310 309 307 305 303 302 301 300 299 297 297 297 296 295 295 295 294 294 295 295 295 295 295 295 296 296 296 295 295 295 295 295 296 296 297 297 297 298
312 311 309 310 311 311 311 309 306 310 308 307 305 304 302 302 302 302 301 299 297 296 296 295 294 295 294 295 295 295 295 295 295 294 294 295 295 295 294 294 294 294 295 295 295 296 296 297 297
310 309 312 311 310 310 310 310 308 310 307 304 304 302 302 301 301 300 298 297 296 295 294 294 294 293 294 294 294 294 294 294 293 293 294 294 295 294 294 294 294 294 294 294 294 294 294 295 296
308 313 311 310 309 309 308 309 308 308 305 303 303 302 301 301 300 298 297 296 295 295 294 293 293 293 293 293 293 293 293 293 293 293 293 293 294 293 293 293 293 293 294 294 294 294 293 293 294
314 312 309 307 309 308 308 307 308 308 303 304 304 302 300 300 299 298 296 295 295 294 293 292 291 292 292 292 292 292 293 292 292 293 293 293 293 293 293 293 292 292 293 293 293 293 293 293 293
311 309 307 306 306 308 307 307 309 309 302 300 300 299 300 300 299 297 295 294 294 293 292 291 291 291 291 292 292 292 293 292 292 292 292 292 292 291 291 291 291 291 292 292 292 292 291 291 292
308 309 307 306 306 306 306 306 306 307 304 304 302 300 301 299 298 296 294 294 293 293 292 291 291 291 291 291 291 291 291 291 292 291 291 291 290 290 290 290 290 290 291 291 291 290 289 289 291
307 307 307 308 304 303 301 304 302 304 305 305 304 304 301 300 299 295 294 293 293 293 292 291 291 291 291 290 290 290 290 290 290 290 290 290 289 289 289 289 289 290 290 290 290 290 290 289 288
310 305 306 306 305 306 304 310 305 305 304 302 304 304 303 300 297 297 294 293 293 293 292 291 290 290 290 290 290 290 289 289 290 289 289 289 289 288 288 288 288 289 290 290 290 289 287 286 287
308 304 305 304 304 302 303 302 302 300 303 305 303 304 304 302 300 298 295 294 293 292 291 290 290 290 290 290 290 290 289 289 289 289 289 288 288 288 288 288 287 288 289 290 289 288 286 284 284
304 305 301 298 299 304 305 304 304 301 302 303 302 303 304 302 299 297 296 294 293 292 290 290 290 290 289 290 290 289 288 288 288 288 288 288 287 287 287 286 287 288 289 289 288 287 284 282 281
304 306 310 308 304 310 300 300 307 304 301 302 301 301 302 301 298 297 295 293 292 291 290 290 290 289 289 289 289 289 288 288 288 287 287 287 287 286 286 286 286 287 288 288 287 284 282 281 280
303 306 310 307 307 309 298 306 307 301 301 299 298 299 300 299 298 297 296 294 293 291 290 290 289 289 289 289 289 288 287 287 287 287 286 286 286 286 286 285 285 286 287 286 285 283 281 279 279
305 305 305 305 289 299 308 304 303 302 299 296 295 297 300 299 298 297 295 293 292 291 290 289 289 289 289 288 288 287 287 287 286 286 286 286 285 286 285 284 285 286 286 285 282 281 279 278 278
302 301 305 304 307 301 306 306 309 309 304 302 295 295 301 299 298 296 296 294 292 290 289 289 289 288 288 287 287 287 287 286 286 286 286 286 285 284 284 284 285 285 285 283 281 278 277 276 276
299 302 301 302 303 307 304 310 305 307 305 304 297 302 303 302 300 297 295 293 292 290 289 289 288 288 287 287 286 286 286 286 286 286 285 285 284 283 283 283 284 284 284 282 278 275 274 274 275
302 302 303 307 307 301 303 311 303 304 303 300 298 303 304 302 301 298 295 292 291 290 289 288 288 287 287 287 286 286 286 286 286 285 284 283 282 282 282 283 284 283 283 280 277 274 273 273 273
Wind_Speed
3 4 3 1 4 5 1 2 1 3 2 4 10 9 9 7 2 3 5 2 6 9 9 9 6 3 3 3 4 4 4 5 6 8 8 10 12 13 13 13 13 14 15 15 13 15 15 16 18
2 2 1 1 5 3 3 4 4 2 14 18 15 8 6 2 5 6 9 3 5 7 8 7 4 5 4 6 7 7 6 5 7 9 9 11 12 13 15 16 16 16 16 16 17 17 16 16 17
2 2 1 4 3 3 4 3 5 6 20 2 6 8 4 6 7 7 5 1 4 5 5 4 6 5 4 5 9 10 10 12 12 10 10 12 13 13 14 16 17 18 18 19 19 19 18 18 18
2 2 4 4 2 3 2 4 4 10 4 5 12 9 5 6 10 8 5 2 2 2 4 3 4 5 5 4 5 8 11 14 16 17 18 16 14 15 16 15 16 19 19 20 21 22 21 20 20
2 2 4 3 2 1 3 1 11 4 4 7 5 7 8 10 12 10 7 4 3 2 4 5 5 6 6 7 8 8 8 10 12 15 17 19 20 21 20 20 20 19 19 20 21 22 22 23 22
2 3 4 1 3 2 3 3 6 4 6 8 6 12 9 13 13 11 9 7 6 3 1 1 3 4 5 7 9 10 12 13 14 14 14 17 21 23 26 26 25 24 22 19 22 23 23 24 25
6 4 5 5 3 2 4 7 7 8 8 7 12 7 8 18 15 11 10 8 6 4 2 0 2 4 6 8 9 10 12 14 16 18 19 18 18 20 23 26 27 28 28 27 24 22 24 25 26
3 5 4 3 5 5 6 6 7 8 5 10 11 7 7 25 20 15 12 10 9 6 4 1 2 4 6 8 9 10 12 14 15 17 18 21 22 21 20 22 25 28 29 29 28 28 25 25 27
2 4 2 6 7 5 8 4 7 5 7 14 13 9 10 25 23 18 14 12 11 8 6 2 1 5 7 10 12 13 15 16 16 17 18 17 18 21 24 23 23 26 28 30 30 30 28 28 28
4 3 6 5 4 3 5 6 11 7 8 9 11 15 14 25 24 19 17 16 13 10 5 2 1 3 6 8 10 13 14 16 18 19 19 20 20 20 21 23 27 27 27 27 31 32 31 32 31
1 3 2 3 5 4 3 3 10 9 5 17 25 25 24 27 24 21 20 17 13 8 5 5 3 3 5 8 11 12 13 14 16 17 19 20 21 22 23 22 23 26 28 30 29 31 35 33 33
2 0 2 3 5 3 3 4 6 19 14 10 18 23 28 28 25 22 21 17 13 9 8 7 5 3 5 8 10 11 12 13 14 17 20 22 24 25 25 26 28 27 29 31 31 33 31 36 33
2 1 3 5 8 11 7 8 10 17 26 20 14 24 28 27 25 24 21 17 13 11 8 6 5 5 7 9 9 10 12 14 15 17 20 22 23 25 26 28 28 28 30 30 33 35 36 36 38
1 6 9 9 13 11 5 4 2 7 16 18 19 27 28 26 24 22 20 17 14 11 9 7 5 6 7 8 11 12 14 17 18 20 23 25 28 29 30 30 30 30 30 30 33 35 36 39 39
3 5 6 3 4 4 4 6 10 18 12 17 24 26 27 26 26 26 22 20 16 13 10 7 6 6 7 9 10 12 14 16 18 20 22 26 28 30 31 34 35 34 35 35 33 32 36 39 40
4 4 5 1 4 1 4 10 7 14 17 24 27 28 30 29 28 25 24 21 17 13 10 9 8 7 8 9 11 13 15 17 19 21 23 26 29 31 31 33 36 38 39 39 40 40 37 35 40
6 4 3 8 6 3 5 11 7 8 21 27 32 34 35 33 31 29 26 23 19 16 13 11 9 8 8 10 13 15 17 19 20 21 24 26 28 30 33 34 36 39 42 43 43 43 41 43 40
5 4 5 7 2 4 5 17 14 19 24 34 37 38 39 38 37 33 30 27 22 18 15 11 8 8 10 11 14 16 18 20 22 24 26 28 29 31 32 34 35 39 43 44 44 44 42 41 42
4 4 8 6 5 4 10 14 21 17 23 26 30 35 42 44 37 33 31 27 23 19 15 12 10 10 11 13 16 19 21 22 23 25 28 30 31 31 33 35 38 39 41 43 43 43 43 41 35
4 3 8 8 1 6 11 17 16 16 17 27 29 37 45 43 43 40 36 31 25 20 16 13 11 10 11 14 17 20 23 25 26 27 28 30 31 32 34 36 38 40 43 43 43 41 42 43 34
4 5 5 8 6 5 8 9 6 6 14 25 27 33 36 44 47 43 39 35 29 25 19 15 11 10 11 13 17 21 24 27 30 32 32 33 33 34 36 36 36 38 41 44 44 43 41 44 42
5 5 3 4 5 4 5 10 4 7 11 6 20 27 35 38 41 47 44 39 33 26 20 15 12 10 11 14 18 22 26 29 31 32 33 34 33 34 35 38 38 39 41 44 47 45 42 38 45
7 3 3 1 3 3 4 5 7 3 8 18 9 27 32 37 40 46 49 42 33 28 21 16 12 12 12 15 20 24 26 28 32 34 36 37 37 36 36 38 38 40 42 45 46 45 41 37 36
4 2 4 4 1 2 6 7 4 6 8 7 6 12 18 27 35 39 45 39 35 28 22 17 14 13 13 16 21 25 27 31 34 35 37 39 40 39 37 38 40 41 43 45 47 46 41 43 45
3 5 3 5 2 8 4 3 12 9 11 10 10 12 16 20 28 35 44 44 39 31 23 18 15 14 14 18 22 25 28 30 32 34 37 39 41 42 41 41 41 42 44 45 48 48 48 46 42
6 8 6 8 4 9 2 9 7 11 14 13 14 15 16 20 26 31 44 47 40 31 25 20 16 13 15 19 22 24 27 30 31 35 38 41 42 45 45 44 43 43 45 47 47 48 48 42 40
5 6 3 5 2 3 5 8 7 10 9 9 15 14 21 23 26 29 43 45 38 31 25 20 16 14 16 20 22 23 26 30 33 35 38 42 44 45 46 45 45 46 47 48 48 48 49 44 42
4 3 4 2 3 6 10 14 13 13 9 10 8 16 19 21 25 30 41 44 38 30 24 20 16 15 17 19 21 24 27 30 33 36 39 42 44 44 45 45 45 47 49 49 47 46 46 44 40
3 3 1 2 5 6 4 13 5 8 10 10 11 19 20 21 25 30 40 43 36 29 24 19 15 15 17 19 21 25 28 31 34 37 40 42 44 43 44 45 46 47 49 50 47 44 45 43 39
2 8 12 7 7 3 3 22 1 6 9 8 12 20 21 21 24 29 39 41 36 31 27 19 16 15 17 20 23 26 29 32 35 38 41 43 44 43 43 45 47 50 50 49 46 45 42 40 41
Wind_Direction
117 137 120 163 59 67 151 215 200 184 93 66 97 117 122 61 92 183 143 342 318 314 324 319 319 293 242 206 224 223 235 256 274 283 293 300 304 300 296 291 297 301 303 304 302 302 297 284 278
131 132 133 107 82 66 265 268 183 153 135 115 94 91 67 85 101 115 172 339 333 337 336 331 311 299 277 248 244 243 241 251 260 268 276 280 281 285 291 289 287 290 292 294 298 298 299 295 284
132 121 37 87 98 156 181 211 154 116 144 164 109 81 103 127 131 141 142 5 344 343 339 351 348 353 314 280 256 257 262 261 255 259 268 268 269 272 276 277 281 282 283 288 292 291 294 297 293
175 137 73 84 148 220 203 183 139 132 126 176 135 85 123 168 166 154 143 98 21 17 42 21 25 12 8 355 312 285 276 277 275 269 263 263 272 276 276 277 279 281 282 281 284 288 289 289 291
127 56 52 65 299 256 235 196 159 139 134 149 171 168 151 162 162 157 158 161 183 122 74 59 47 33 20 10 6 356 339 318 300 292 286 281 277 275 280 278 277 279 281 280 281 280 283 285 284
91 80 66 202 259 257 272 181 154 144 163 155 140 148 166 177 172 177 189 202 213 209 220 349 357 360 357 353 346 339 334 325 317 312 304 292 284 280 276 274 276 276 273 274 274 276 277 278 279
121 87 172 174 212 277 205 166 167 165 166 197 159 139 182 182 185 193 201 210 215 215 214 326 31 12 359 350 343 337 329 320 311 303 298 295 294 286 279 275 273 271 274 274 271 270 274 275 275
105 96 126 190 191 243 189 158 160 178 185 165 181 188 201 190 190 198 203 207 216 219 218 219 1 9 5 2 354 349 343 334 325 313 302 291 287 286 287 284 273 271 268 268 270 271 269 269 271
79 61 177 197 158 237 170 146 176 190 165 185 204 217 225 189 188 197 201 205 206 207 207 192 336 351 356 3 7 4 358 352 344 335 325 314 304 294 289 288 286 280 275 271 268 268 270 268 266
73 103 219 190 201 230 180 186 181 173 191 216 220 220 199 185 190 198 203 207 206 210 207 223 311 348 358 6 8 9 3 357 352 346 339 332 326 322 314 304 297 290 286 283 276 273 273 272 270
82 171 219 249 229 231 209 193 184 173 220 214 216 204 191 187 193 202 209 210 214 220 237 262 288 311 343 357 9 8 5 1 355 347 341 335 329 324 321 319 311 304 295 285 281 276 268 270 270
29 93 256 287 223 218 250 178 228 214 232 235 236 215 198 194 197 203 210 212 216 221 226 236 254 298 349 5 5 3 360 358 353 348 341 337 333 329 328 325 323 322 317 309 299 285 281 264 270
97 302 298 276 258 246 248 232 240 249 245 251 239 205 203 200 201 205 211 215 221 229 240 260 295 340 11 8 0 355 352 349 349 345 340 338 335 333 332 328 325 321 318 315 309 303 295 285 272
278 278 269 263 254 243 218 246 264 274 243 237 218 206 205 205 207 210 214 220 222 230 240 264 296 337 355 352 352 349 347 345 345 343 342 339 337 336 335 334 332 327 322 317 313 311 305 296 287
304 325 316 217 220 247 210 280 239 265 235 211 207 207 206 207 212 221 226 225 226 230 242 263 291 310 335 340 340 341 341 338 338 340 339 337 335 335 335 333 333 331 328 323 316 309 305 302 297
24 49 3 218 162 328 136 271 264 273 222 210 211 211 212 215 221 223 224 225 226 232 243 257 273 298 316 329 333 338 338 338 338 335 337 335 332 331 331 331 331 330 328 326 325 321 313 302 297
8 283 294 313 204 131 171 272 253 261 218 223 223 221 219 219 217 220 222 225 226 232 241 250 265 285 312 325 331 335 336 334 334 335 334 331 329 328 329 331 330 327 326 325 323 319 315 309 300
243 284 263 248 230 195 224 263 268 254 225 230 234 229 224 221 222 219 221 223 226 230 240 250 267 293 308 323 329 331 332 335 334 332 332 329 328 326 325 324 324 325 323 322 320 317 313 307 300
165 199 241 252 242 246 250 251 273 265 233 234 231 229 230 229 224 222 221 223 223 229 240 252 272 295 317 324 324 329 333 333 330 328 327 325 324 324 324 322 323 324 320 319 318 318 314 307 298
165 225 263 279 301 192 267 259 263 257 249 238 230 228 233 227 221 217 217 217 224 232 240 252 268 293 310 321 325 329 328 329 329 328 327 324 324 324 323 324 323 323 322 323 322 319 312 302 295
212 196 237 240 327 255 298 267 242 276 258 255 247 249 244 234 228 217 215 217 222 228 238 249 261 286 306 317 322 323 324 328 332 328 326 325 324 324 323 322 321 322 323 321 320 314 307 299 290
244 211 234 286 3 258 26 291 251 247 276 246 251 244 244 237 229 224 218 217 220 228 235 243 255 283 301 315 321 324 327 328 328 325 323 321 321 322 321 321 321 321 321 319 316 312 303 293 286
225 140 168 146 221 346 237 275 262 18 263 266 253 254 249 245 237 227 220 220 222 227 233 239 253 282 301 316 320 322 325 325 323 323 320 319 318 320 321 319 318 317 317 316 312 307 298 289 279
126 97 61 59 72 289 222 192 215 185 209 253 249 263 256 248 238 231 225 218 221 224 230 237 252 280 301 314 317 322 324 324 323 320 317 317 318 319 320 317 315 315 314 313 310 304 294 286 279
106 76 316 324 347 239 165 217 254 229 221 221 251 284 281 258 238 228 218 213 217 221 229 240 256 280 300 311 318 322 323 321 317 317 317 317 318 318 318 316 314 313 313 311 307 301 294 290 280
176 170 168 233 233 280 344 245 264 226 254 255 256 271 269 247 238 233 219 216 216 220 228 238 255 284 302 311 318 320 317 318 317 318 318 319 318 318 318 316 314 312 309 307 304 299 294 287 270
183 189 168 100 113 340 240 273 281 261 275 262 261 259 254 243 236 231 219 217 218 220 229 242 263 288 303 311 315 317 319 317 318 319 319 318 318 317 315 314 311 310 308 306 303 297 292 287 279
177 170 78 11 257 264 267 276 253 242 237 241 238 239 251 242 236 228 219 216 216 221 230 244 268 289 301 308 313 319 317 317 319 319 319 317 316 316 315 313 310 309 306 303 300 293 288 284 281
132 213 129 163 163 204 275 268 203 221 189 221 224 233 243 236 238 233 221 214 216 222 232 245 265 284 297 306 314 315 317 319 318 319 319 317 316 316 315 313 310 307 304 301 298 287 284 280 274
221 199 176 202 228 252 141 271 189 201 208 220 232 246 241 239 242 236 225 210 212 221 230 241 260 280 295 305 310 313 316 318 320 321 321 320 319 319 317 314 312 308 302 299 295 287 281 274 275